Weather in El'ton

Russia / Volgograd Oblast     49°07′38″N   46°50′42″E
temp.,
°C
wind,
m/s
gust,
m/s
humid.,
%
clouds,
%
prec.,
mm/h
press.,
hPa
HPBL,
m
7 march, sun
sun700:00−3n6995100 1.0 1012464
03:00−4nnw5793100 1.2 1014425
06:00−6nw479581 0.0 1017198
09:00−5nw8118374 0.1 1019591
12:00−3nw79660 0.0 10201074
15:00−2w68650 0.0 10191342
18:00−4ssw487997 0.0 1017164
21:00−3sw7158094 0.0 1016559
8 march, mon
mon800:00−2sw8177673 0.0 1014677
03:00−3sw9177636 0.0 1012683
06:00−3sw816800 0.0 1011654
09:000wsw10147822 0.0 1012952
12:00+2wsw9137684 0.0 10111211
15:00+3wsw9146989 0.1 10111462
18:00+1sw51377100 0.0 1010571
21:00+1sw61378100 0.0 1011470
9 march, tue
tue900:000sw61482100 0.0 1010457
03:00−1sw6128798 0.0 1009381
06:000sw6119297 0.4 1009557
09:000w799498 0.9 1010627
12:00−1nnw7881100 0.3 1011711
15:00−1nw676593 0.3 10121082
18:00−3nw347462 0.0 1014153
21:00−3nw358864 0.2 1015473
10 march, wed
wed1000:00−4nw5674100 0.2 1015766
03:00−6nw687499 0.2 1017639
06:00−7nw58750 0.0 1018623
09:00−7nw78640 0.0 1020834
12:00−6nw785821 0.0 10211053
15:00−7nw785652 0.0 10221100
18:00−9nw79580 0.0 10231030
21:00−11nnw68620 0.0 1025768
11 march, thu
thu1100:00−13nnw566922 0.0 1026630
03:00−14nnw567035 0.0 1026612
06:00−15n56731 0.0 1028531
09:00−15n566122 0.0 1030598
12:00−12n55460 0.0 1031740
15:00−11n55410 0.0 1031795
18:00−11nne34480 0.0 1031598
21:00−12nne22510 0.0 1033358